COSMOS 1275 DEB, 42095

Orbit data source: Space-Track

COSMOS 1275 DEB, 42095 is space debris in LEO originally from a launch on Thu, 04 Jun 1981 UTC launched from the Plesetsk Missile And Space Complex (PKMTR). Debris objects in space refer to the collection of defunct objects orbiting the Earth. Examples of debris include non-operational satellites, rocket bodies, and fragments generated from explosions, collisions, or faulty payload assembly.

Loading next visibility...
COSMOS 1275 DEB details
Identifier
42095, 1981-053PF
Orbit
LEO
Last TLE update22 hours ago
Origin
Flag of CISGUKOS (CIS)
ManufacturerUnknown
MissionSpacecraft
Bus & MotorUnknown
MassUnknown
Launch date (UTC)
1981-06-04 (44 years ago)
Launch vehicleUnknown
Launch site
Plesetsk Missile And Space Complex (PKMTR)
Object type
Payload
Rocket body
Debris
Shape & HBRUnknown
Radar Cross SectionSmall (<0.1 m²)

Expand to show TLE details & history

TLE from 22 hours ago
0 COSMOS 1275 DEB
1 42095U 81053PF  24347.41676930  .00002399  00000-0  22768-2 0  9993
2 42095  82.7540 240.9905 0134004 311.8299  47.1476 13.76672504553612
Epoch: 2024-12-12T10:00Z
Definitive object data (Epoch: 2024-12-12T10:00:08.867Z)
Latitude-0.00004°
Longitude9.35614°
Altitude912.296 km
Speed7.429 km/s
True Right ascension16h 03m 57s
True Declination0° 00' 00"
Sunlit
Object was in daylight at TLE epoch
Visualization TLE readout
Latitude-57.71701°
Longitude-2.90426°
Altitude900.286 km
Speed7.45 km/s
Apparent Right ascension17h 17m 50s
Apparent Declination-52° 30' 35"
Sunlit
Object is in daylight
Visualization observer readout
Local Sidereal Time06:53:43
Azimuth135.508° SSE
Elevation-69.336°
Doppler factor1
Orbital elements
Apogee altitude1,071.372 km
Perigee altitude874.359 km
Semi-major axis7,351.003 km
Eccentricity0.0134004
Inclination82.754°
RAAN240.9905°
Arg. of periapsis311.8299°
True anomaly48.28623°
Mean anomaly47.1476°
Eccentric anomaly47.71562°
Mean motion3.44368 °/min
BSTAR0.0022768
Orbital period104.54 mins
Loading maneuver chart data...
Loading historical data...
Loading historical data...
Loading historical data...
Loading historical data...
Loading historical data...
Loading historical data...
Loading historical data...

COSMOS 1275 DEB Visibility forecast

Observer location: undefined°, undefined

Span
Click to sort rows by Start time (UTC) header in descending order
Start Az.
Max El. time (UTC)
Max El. Az.
Max El.
End time (UTC)
End Az.
11 mins2024-12-13 17:30:08.191Z172.658° S2024-12-13 17:35:08.191Z113.011° SE42.067°2024-12-13 17:41:08.191Z13.993° NNE
6 mins2024-12-13 19:19:08.191Z265.204° W2024-12-13 19:21:08.191Z287.843° WNW17.555°2024-12-13 19:25:08.191Z330.192° NNW
12 mins2024-12-14 04:27:08.191Z3.782° NNE2024-12-14 04:33:08.191Z93.656° ESE39.408°2024-12-14 04:39:08.191Z156.559° SSE
8 mins2024-12-14 06:14:08.191Z314.889° NW2024-12-14 06:17:08.191Z282.539° WNW21.707°2024-12-14 06:22:08.191Z229.926° WSW
|